OpenBCM V1.07b12 (Linux)

Packet Radio Mailbox

DB0FHN

[JN59NK Nuernberg]

 Login: GUEST





  
I6KZR  > KEPLER   04.05.03 19:39l 349 Lines 16469 Bytes #999 (0) @ WW
BID : 673_I6KZR
Read: DB0FHN GUEST
Subj: 2L Keplerian Elements #117
Path: DB0FHN<DB0ZWI<DB0CHZ<DB0ERF<DB0ROF<DB0AIS<DB0ZDF<DB0GE<DB0LJ<LX0HST<
      HA3PG<LZ3NP<IK6PYS<I6ZLO<IK6WID
Sent: 030427/1759Z @:IK6WID.#AP.IMAR.ITA.EU #:37591 [MONTE URANO]  FBB7.00i
From: I6KZR@IK6WID.#AP.IMAR.ITA.EU
To  : KEPLER@WW





We the willing,
  Led by the unknowing have done so much
    with so little for so long
      we are now qualified to do anything
        with nothing, In no time at all.

Inviato da: I6KZR@IK6WID.#AP.IMAR.ITA.EU        

OSCAR 7
1 07530U 74089B   03114.65421652 -.00000029  00000-0  10000-3 0  1654
2 07530 101.7499 161.7987 0012176 313.3465  46.6589 12.53565273301347
GOES 2
1 10061U 77048A   03110.05256413 -.00000334  00000-0  00000+0 0  1593
2 10061  14.1502  12.9744 0012144 201.8149 158.0678  0.99401519 39439
GOES 3
1 10953U 78062A   03116.74434415 -.00000118  00000-0  00000+0 0    29
2 10953  13.4405  16.7225 0006510 354.3260   5.6158  1.00280373 44170
GOES 6
1 14050U 83041A   03116.83421574 -.00000027  00000-0  10000-3 0  4440
2 14050  10.4856  35.1168 0006362   9.4399 350.5079  1.00319761131317
OSCAR 10
1 14129U 83058B   03116.43626042  .00000145  00000-0  10000-3 0  9319
2 14129  26.1009 153.3817 6000972 347.0699   2.7223  2.05867525121445
OSCAR 11 (UoSAT 2)
1 14781U 84021B   03116.56195845  .00001359  00000-0  19479-3 0  1319
2 14781  98.1277  91.0581 0009824   4.1907 355.9386 14.78194891 26138
NOAA 10
1 16969U 86073A   03117.62798959  .00000118  00000-0  66855-4 0  7512
2 16969  98.7359 111.6370 0011559 247.7617 112.2338 14.27091784863615
GOES 7
1 17561U 87022A   03117.46239071  .00000035  00000-0  10000-3 0  9412
2 17561   7.7303  55.0987 0004032 285.4971 220.3343  1.00276239 42420
COSMOS 1861
1 18129U 87054A   03114.96585006 +.00000051 +00000-0 +39135-4 0 02335
2 18129 082.9201 098.1841 0013295 049.3235 310.9070 13.72707679793482
EUTELSAT 1-F4 (ECS 4)
1 18351U 87078B   03116.83122266 -.00000006  00000-0  00000+0 0   581
2 18351   7.3332  58.2490 0005924 200.2016 159.7158  0.98686693 43342
NOAA 11
1 19531U 88089A   03117.62769314  .00000141  00000-0  96377-4 0  5877
2 19531  98.8910 198.7511 0011751  13.9913 346.1584 14.14569672752425
ASTRA 1A
1 19688U 88109B   03116.91447918  .00000026  00000-0  10000-3 0  6003
2 19688   1.5529  93.3472 0004591 287.6966 167.8558  1.00273372 32872
OSCAR 14 (UOSAT 3)
1 20437U 90005B   03117.17096318  .00000093  00000-0  50744-4 0  2187
2 20437  98.2619 157.5171 0011407   5.3209 354.8094 14.31260388692165
OSCAR 15 (UOSAT 4)
1 20438U 90005C   03116.54020664  .00000046  00000-0  33593-4 0  7972
2 20438  98.2398 145.7581 0010725  19.2164 340.9445 14.30215831691730
OSCAR 16 (PACSAT)
1 20439U 90005D   03117.17467459  .00000126  00000-0  62978-4 0  8845
2 20439  98.3041 169.5896 0011363  12.5833 347.5632 14.31499036692204
OSCAR 17 (DOVE)
1 20440U 90005E   03115.75272233  .00000095  00000-0  51093-4 0  7438
2 20440  98.3232 172.2763 0011909  14.2299 345.9215 14.31778531692077
OSCAR 18 (WEBERSAT)
1 20441U 90005F   03116.87204455  .00000119  00000-0  60308-4 0   679
2 20441  98.3205 172.5182 0012239  13.7527 346.3987 14.31579792692216
OSCAR 19 (LUSAT)
1 20442U 90005G   03114.67632816 +.00000124 +00000-0 +62161-4 0 00037
2 20442 098.3367 173.5564 0012621 018.3065 341.8563 14.31743335691950
JAS 1B (FUJI 2)
1 20480U 90013C   03117.37056976 -.00000011  00000-0  51250-4 0  4795
2 20480  99.0569  67.4103 0539610 210.2523 146.6379 12.83331717619215
HST
1 20580U 90037B   03116.98874071  .00003986  00000-0  31552-3 0  4067
2 20580  28.4678 319.9818 0003702 263.9238 217.8381 14.98106599512758
EUTELSAT 2-F1
1 20777U 90079B   03116.84038708 -.00000105  00000-0  10000-3 0   618
2 20777   3.6646  83.8721 0005745 340.6565 168.4088  1.00271704 26778
FENGYUN 1B
1 20788U 90081A   03117.18133467 -.00000149  00000-0 -68273-4 0  9376
2 20788  99.0354  98.7516 0017128  42.3586 317.8900 14.02150451647019
EUTELSAT 2-F2
1 21056U 91003B   03112.94275634 +.00000107 +00000-0 +10000-3 0 06386
2 21056 002.8865 087.2607 0005507 325.4954 185.6543 01.00270095032511
INFORMATOR 1
1 21087U 91006A   03116.87283386  .00000032  00000-0  17615-4 0  6165
2 21087  82.9385 267.5462 0037007  63.0268 297.4673 13.74933120614135
COSMOS 2123
1 21089U 91007A   03114.55083539  .00000078  00000-0  66454-4 0  5073
2 21089  82.9212 133.1744 0030814 103.6662 256.7921 13.74411402612715
ASTRA 1B
1 21139U 91015A   03108.00000000  .00000114  00000-0  10000-3 0  1682
2 21139   0.0122 319.8851 0002995  65.1991 199.7843  1.00273184 32770
METEOSAT 5 (MOP 2)
1 21140U 91015B   03113.80447631  .00000008  00000-0  10000-3 0  8110
2 21140   5.7761  69.4802 0001224  27.0271 107.3185  1.00272709 46691
NOAA 12
1 21263U 91032A   03117.65761253  .00000267  00000-0  13234-3 0   583
2 21263  98.6344 106.1791 0012431 178.6351 181.4861 14.25128679620919
OSCAR 22 (UoSAT 5)
1 21575U 91050B   03116.52943549  .00000248  00000-0  93209-4 0  7839
2 21575  98.1484 105.3163 0006609 298.2253  61.8264 14.39202631617919
METEOR 3-5
1 21655U 91056A   03116.22505644  .00000051  00000-0  10000-3 0  5175
2 21655  82.5594 351.7849 0014437  34.9640 325.2427 13.16982664562257
UARS
1 21701U 91063B   03116.54294667  .00000593  00000-0  62591-4 0  8795
2 21701  56.9792 120.9405 0005220  84.4434 275.7186 15.02999541635788
EUTELSAT 2-F3
1 21803U 91083A   03116.92786676  .00000122  00000-0  10000-3 0  5453
2 21803   2.7658  88.3728 0004824 281.1221 200.6773  1.00272983 37675
INMARSAT 2-F3
1 21814U 91084B   03116.47466142  .00000101  00000-0  10000-3 0  6547
2 21814   1.8803  60.2733 0003253 350.6674 191.9727  1.00273770 41562
INMARSAT 2-F4
1 21940U 92021B   03113.66465124 -.00000368  00000-0  10000-3 0  5899
2 21940   2.4133  21.7241 0002038   3.1438 174.7041  1.00270002 40325
EUTELSAT 2-F4
1 22028U 92041B   03116.91864006 -.00000108  00000-0  10000-3 0  3421
2 22028   1.8850  91.5337 0006192 282.6932 158.6434  1.00271881 32459
OSCAR 23 (KITSAT 1)
1 22077U 92052B   03115.57190482 -.00000037  00000-0  10000-3 0  1719
2 22077  66.0838 347.5078 0015565 258.8853 101.0416 12.86410816502799
ASTRA 1C
1 22653U 93031A   03108.00000000  .00000114  00000-0  10000-3 0  7961
2 22653   0.0122 319.8851 0002995  65.1991 199.7728  1.00273184 31470
METEOR 2-21
1 22782U 93055A   03117.44252478  .00000082  00000-0  60838-4 0  5794
2 22782  82.5502 161.0823 0023205 152.6648 207.5749 13.83537604487474
KITSAT B
1 22825U 93061C   03116.55305570  .00000095  00000-0  53596-4 0  5418
2 22825  98.2664 142.8159 0009634  61.9546 298.2617 14.28966552499442
POSAT 1
1 22826U 93061D   03117.13291504  .00000111  00000-0  59570-4 0  3454
2 22826  98.2695 144.5109 0010052  59.2007 301.0164 14.29192010499574
ITAMSAT
1 22828U 93061F   03116.60722470  .00000062  00000-0  40316-4 0  4812
2 22828  98.2632 144.2755 0010911  41.4760 318.7225 14.29529911467701
EYESAT A
1 22829U 93061G   03117.51367026  .00000177  00000-0  84853-4 0  5087
2 22829  98.2654 145.7775 0010830  39.6470 320.5530 14.29802879499769
METEOSAT 6
1 22912U 93073B   03110.98704862  .00000059  00000-0  00000+0 0  7662
2 22912   2.8246  82.1213 0002856 322.3450 169.6545  1.00284576 32911
GOES 8
1 23051U 94022A   03117.46806056 -.00000251  00000-0  00000+0 0  7069
2 23051   0.4657  99.3968 0005407 340.8512 227.0934  1.00255107 40482
ASTRA 1D
1 23331U 94070A   03115.85328919  .00000126  00000-0  10000-3 0  8360
2 23331   0.0666 157.8785 0003229 236.6883 150.2238  1.00272993 31531
RADIO ROSTO
1 23439U 94085A   03114.92570544 -.00000039 +00000-0 +92679-4 0 06999
2 23439 064.8137 295.7974 0146445 102.4112 259.3243 11.27548666342968
NOAA 14
1 23455U 94089A   03117.64969747  .00000121  00000-0  89249-4 0  6079
2 23455  99.1825 138.0052 0009942  42.9748 317.2198 14.13323250429091
HIMAWARI 5 (GMS 5)
1 23522U 95011B   03116.73692968 -.00000288  00000-0  00000+0 0  2059
2 23522   1.8491  83.6916 0001029 312.8732 223.2362  1.00276572 29562
HOT BIRD 1
1 23537U 95016B   03099.84635997  .00000088  00000-0  10000-3 0  5405
2 23537   0.0227 231.2698 0003930 159.6337 124.4056  1.00270936 29475
GOES 9
1 23581U 95025A   03115.43531464 -.00000220  00000-0  00000+0 0  6362
2 23581   0.1093 276.8934 0013864 234.7711  12.3842  1.00056853 29021
INMARSAT 3-F1
1 23839U 96020A   03116.83803448  .00000006  00000-0  10000-3 0  9216
2 23839   0.0713  27.9184 0004597   9.0585 183.0038  1.00270625 25880
ASTRA 1F
1 23842U 96021A   03108.00000000  .00000114  00000-0  10000-3 0  5670
2 23842   0.0122 319.8851 0002995  65.1991 199.7635  1.00273184 25707
JAS 2
1 24278U 96046B   03114.91969687 -.00000023 +00000-0 +11082-4 0 05833
2 24278 098.5485 257.2965 0351445 047.1761 315.8349 13.52879027330146
UNAMSAT
1 24305U 96052B   03117.23877320  .00000205  00000-0  20364-3 0  6813
2 24305  82.9315 212.7364 0032345  15.9258 344.2857 13.73460770332779
INMARSAT 3-F2
1 24307U 96053A   03114.94954284 -.00000138  00000-0  00000+0 0  1133
2 24307   0.0993  22.4006 0005494 346.1395 170.3944  1.00271717 24275
HOT BIRD 2
1 24665U 96067A   03104.95823611  .00000000  00000-0  10000-3 0  3497
2 24665   0.0337 189.6656 0009067 269.9979 100.9111  1.00271489 23811
INMARSAT 3-F3
1 24674U 96070A   03116.43297125  .00000028  00000-0  10000-3 0   354
2 24674   0.1055  60.7289 0003563 321.4870 165.7725  1.00274127 23259
GOES 10
1 24786U 97019A   03117.58759951  .00000078  00000-0  00000+0 0  6557
2 24786   0.3004  97.9808 0004928 331.9251 221.9639  1.00285185 22011
INMARSAT 3-F4
1 24819U 97027A   03116.34833506 -.00000298  00000-0  10000-3 0  9132
2 24819   0.0808  56.5610 0002630 325.6449 263.0473  1.00267161 21674
FENGYUN 2A
1 24834U 97029A   03116.93300497 -.00000204  00000-0  00000+0 0    58
2 24834   2.7388  87.7075 0000800 283.8356 265.1978  1.00266849 21511
HOT BIRD 3
1 24931U 97049A   03099.84635997  .00000088  00000-0  10000-3 0  4300
2 24931   0.0632  21.1145 0006301 353.2368 140.9901  1.00272510 20583
